Terminal Aerodrome Forecast
Issued by NWS Denver/Boulder, CO

Home | Current Version | Previous Version | Text Only | Print | Product List | Glossary On
Versions: 1 2 3 4 5 6 7 8 9 10 11 12 13 14 15 16 17 18 19 20 21 22 23 24 25 26 27 28 29 30 31 32 33 34 35 36 37 38 39 40 41 42 43 44 45 46 47 48 49 50
000
FTUS45 KBOU 021956 AAA
TAFDEN
TAF AMD
KDEN 021956Z 0220/0324 32008KT P6SM FEW090
     FM022300 27005KT P6SM FEW090
     FM030300 18009KT P6SM FEW100
     FM030700 21009KT P6SM SKC
     FM031500 23010KT P6SM SKC=

USA.gov is the U.S. government's official web portal to all federal, state and local government web resources and services.